FENGYUN 1C DEB

Satellite information

Favourite Embed

Satellite Type and Status

DEBRISIN ORBIT

Key statistics

Satellite FENGYUN 1C DEB at a glance.

Uptime

9494

Days in orbit

Revolutions

≈ 14.2

Per day

Orbit

SSO

Sun Synchronous Orbit

Inclination

99.2

Latest

Satellite identification and parameters

Extended collection of information and parameters for FENGYUN 1C DEB.

Object identification

Identified? True

Debris? True

Object name: FENGYUN 1C DEB

International designator: 1999-025DWZ

Object number (NORAD): 36272

Object ID (CCSDS): 36272

Country: PEOPLES REPUBLIC OF CHINA (PRC)

Current information (Y/N): Y

RCS size: SMALL

Orbital parameters

Period: 101.639 minutes

Inclination: 99.1685 deg

SMA: 7214.401 km

Apoapsis: 958.469 km

Periapsis: 714.062 km

RAAN: 353.0925 deg

Eccentricy: 0.0169388

Argument of periapsis: 179.6139 deg

Mean anomaly: 180.5195 deg

Mean motion: 14.16779867 rev/day

Mean motion (dot): 0.0000129 rev/day2

B* drag term: 0.00058035 1/REarth

Two-line elements (TLE)

Creation date: May 3, 2025, 5:28 p.m.

Reference frame: TEME

Reference center: EARTH

Epoch: May 3, 2025, 8:48 a.m. UTC

TLE line 0: 0 FENGYUN 1C DEB

TLE line 1: 1 36272U 99025DWZ 25123.36706029 .00001290 00000-0 58035-3 0 9997

TLE line 2: 2 36272 99.1685 353.0925 0169388 179.6139 180.5195 14.16779867604531

Live tracking on map

Real-time ground track for satellite FENGYUN 1C DEB.

In-orbit conjunctions

A list of the most updated potential collisions computed for object FENGYUN 1C DEB.

Target Orbit TCA Probability of collision Miss distance Type
CZ-6A R/B LEO 2025-02-20 17:46:40 0.000107018 85.0 (m) ROCKET BODY
NOAA 16 DEB SSO 2024-11-16 12:59:09 0.001031287 167.0 (m) DEBRIS
MAST SSO 2024-07-27 15:33:22 0.0002602955 447.0 (m) PAYLOAD

Associated space launch

Chinese polar orbiting meteorological satellite

FENGYUN 1C DEB was lifted into orbit during the mission ‘Long March 4B | Feng Yun 1C’, on board a Long March 4B space rocket.

The launch took place on May 10, 1999, 1:33 a.m. from Launch Complex 7.

For more information about the launch, click the button.

Launch to space Long March 4B | Feng Yun 1C
Long March 4B | Feng Yun 1C

Agency: N/A

Status: Launch Successful

Launch date: May 10, 1999, 1:33 a.m. UTC

Rocket: Long March 4B

Launch pad: Launch Complex 7

Location: Taiyuan Satellite Launch Center, People's Republic of China

...

Latest news about this satellite

There are no fresh news available about this satellite. Check back as we update our databases every day.


Newsletter sign-up

Weekly statistics, charts and insights to help you stay on top of the space industry.